Terminal Aerodrome Forecast
Issued by NWS Dodge City, KS

Home | Current Version | Previous Version | Graphics & Text | Print | Product List | Glossary Off
Versions: 1 2 3 4 5 6 7 8 9 10 11 12 13 14 15 16 17 18 19 20 21 22 23 24 25 26 27 28 29 30 31

999
FTUS43 KDDC 161120
TAFDDC
TAF
KDDC 161120Z 1612/1712 18012KT P6SM FEW250
     FM161600 18015G21KT P6SM FEW250
     FM161800 18019G27KT P6SM SKC
     FM162300 17013G18KT P6SM FEW250=

USA.gov is the U.S. government's official web portal to all federal, state and local government web resources and services.